Location: Martley
(52.2333°N, 2.3667°W)
Time: 10:36:38
(UTC+00:00)

Cosmos 1869 Rocket - Pass Details

Date: 11 December 2019
Orbit: 606 x 632 km, 82.5° (Epoch: 21 January)

Event Time Altitude Azimuth Distance (km) Brightness Sun altitude
Rises 06:30:42 0° 218° (SW) 2,856 6.8 -13.8°
Reaches altitude 10° 06:33:07 10° 229° (SW) 1,959 5.8 -13.5°
Maximum altitude 06:36:57 30° 291° (WNW) 1,105 4.3 -13.0°
Drops below altitude 10° 06:40:50 10° 353° (N) 1,982 5.9 -12.4°
Sets 06:43:18 0° 5° (N) 2,897 6.8 -12.0°
